Probability
0 0 3 0 3 3 3 3 3 3 3 3 3 3 3 3 3 3 3 0 0 0 0 0 0 3 3 3 0 0 0 0 0 0 0 0 0 0 0 0 0 0 0
3 3 0 3 0 0 3 3 3 3 0 3 3 3 3 0 0 0 0 0 0 0 0 0 0 0 0 0 0 0 0 0 0 0 0 0 0 0 0 0 0 0 0
0 3 0 0 0 0 0 0 0 0 0 0 3 0 0 0 0 0 0 0 0 0 0 0 0 0 0 0 0 0 0 0 0 0 0 0 0 0 0 0 0 0 0
3 0 0 0 0 0 0 0 0 0 0 0 0 0 0 0 0 0 0 0 0 0 0 0 0 0 0 0 0 0 0 0 0 0 0 0 0 0 0 0 0 0 0
6 10 3 3 3 0 0 0 0 0 0 0 0 0 0 0 0 0 0 0 0 0 0 0 0 0 0 0 0 0 0 0 0 0 0 0 0 0 0 0 0 0 0
6 6 3 3 0 0 0 0 0 0 0 0 0 0 0 0 0 0 0 0 0 0 0 0 0 0 0 0 0 0 0 0 0 0 0 0 0 0 0 0 0 0 0
3 3 0 0 0 0 0 0 0 0 0 0 0 0 0 0 0 0 0 0 0 0 0 0 0 0 0 0 0 0 0 0 0 0 0 0 0 0 0 0 0 0 0
3 0 0 0 0 0 0 0 0 0 0 0 0 0 0 0 0 0 0 0 0 0 0 0 0 0 0 0 0 0 0 0 0 0 0 0 0 0 0 0 0 0 0
0 0 0 0 0 0 0 0 0 0 0 0 0 0 0 0 0 0 0 0 0 0 0 0 0 0 0 0 0 0 0 0 0 0 0 0 0 0 0 0 0 0 0
0 0 0 0 0 0 0 0 0 0 0 0 0 0 0 0 0 0 0 0 0 0 0 0 0 0 0 0 0 0 0 0 0 0 0 0 0 0 0 0 0 0 0
0 0 0 0 0 0 0 0 0 0 0 0 0 0 0 0 0 0 0 0 0 0 0 0 0 0 0 0 0 0 0 0 0 0 0 0 0 0 0 0 0 0 0
0 0 0 0 0 0 0 0 0 0 0 0 0 0 0 0 0 0 0 0 0 0 0 0 0 0 0 0 0 0 0 0 0 0 0 0 0 0 0 0 0 0 0
0 0 0 0 0 0 0 0 0 0 0 0 0 0 0 0 0 0 0 0 0 0 0 0 0 0 0 0 0 0 0 0 0 0 0 0 0 0 0 0 0 0 0
0 0 0 0 0 0 0 0 0 0 0 0 0 0 0 0 0 0 0 0 0 0 0 0 0 0 0 0 0 0 0 0 0 0 0 0 0 0 0 0 0 0 0
0 0 0 0 0 0 0 0 0 0 0 0 0 0 0 0 0 0 0 0 0 0 0 0 0 0 0 0 0 0 0 0 0 0 0 0 0 0 0 0 0 0 0
0 0 0 0 0 0 0 0 0 0 0 0 0 0 0 0 0 0 0 0 0 0 0 0 0 0 0 0 0 0 0 0 0 0 0 0 0 0 0 0 0 0 0
0 0 0 0 0 0 0 0 0 0 0 0 0 0 0 0 0 0 0 0 0 0 0 0 0 0 0 0 0 0 0 0 0 0 0 0 0 0 0 0 0 0 0
0 0 0 0 0 0 0 0 0 0 0 0 0 0 0 0 0 0 0 0 0 0 0 0 0 0 0 0 0 0 0 0 0 0 0 0 0 0 0 0 0 0 0
0 0 0 0 0 0 0 0 0 0 0 0 0 0 0 0 0 0 0 0 0 0 0 0 0 0 0 0 0 0 0 0 0 0 0 0 0 0 0 0 0 0 0
0 0 0 0 0 0 0 0 0 0 0 0 0 0 0 0 0 0 0 0 0 0 0 0 0 0 0 0 0 0 0 0 0 0 0 0 0 0 0 0 0 0 0
0 0 0 0 0 0 0 0 0 0 0 0 0 0 0 0 0 0 0 0 0 0 0 0 0 0 0 0 0 0 0 0 0 0 0 0 0 0 0 0 0 0 0
0 0 0 0 0 0 0 0 0 0 0 0 0 0 0 0 0 0 0 0 0 0 0 0 0 0 0 0 0 0 0 0 0 0 0 0 0 0 0 0 0 0 0
0 0 0 0 0 0 0 0 0 0 0 0 0 0 0 0 0 0 0 0 0 0 0 0 0 0 0 0 0 0 0 0 0 0 0 0 0 0 0 0 0 0 0
0 0 0 0 0 0 0 0 0 0 0 0 0 0 0 0 0 0 0 0 0 0 0 0 0 0 0 0 0 0 0 0 0 0 0 0 0 0 0 0 0 0 0
0 0 0 0 0 0 0 0 0 0 0 0 0 0 0 0 0 0 0 0 0 0 0 0 0 0 0 0 0 0 0 0 0 0 0 0 0 0 0 0 0 0 0
0 0 0 0 0 0 0 0 0 0 0 0 0 0 0 0 0 0 0 0 0 0 0 0 0 0 0 0 0 0 0 0 0 0 0 0 0 0 0 0 0 0 0
Height
5809 5808 5808 5807 5806 5806 5805 5805 5804 5803 5802 5801 5800 5799 5799 5798 5797 5797 5796 5795 5794 5793 5792 5791 5790 5789 5788 5788 5787 5786 5786 5785 5785 5785 5784 5784 5784 5784 5784 5784 5784 5783 5783
5804 5804 5803 5803 5802 5802 5801 5800 5800 5799 5798 5797 5796 5795 5794 5794 5793 5792 5791 5790 5789 5788 5787 5786 5785 5784 5783 5782 5781 5780 5780 5779 5779 5779 5778 5778 5778 5777 5777 5777 5777 5777 5776
5799 5798 5798 5798 5798 5797 5797 5796 5795 5794 5794 5793 5792 5791 5790 5789 5788 5787 5786 5785 5783 5782 5781 5780 5779 5778 5777 5776 5775 5774 5773 5772 5772 5772 5771 5771 5771 5771 5771 5771 5770 5770 5769
5793 5793 5793 5793 5792 5792 5792 5791 5791 5790 5789 5788 5787 5786 5785 5784 5783 5782 5780 5779 5778 5776 5774 5773 5772 5771 5770 5769 5768 5768 5767 5766 5765 5765 5764 5764 5764 5764 5764 5764 5763 5762 5762
5788 5787 5787 5787 5787 5786 5786 5786 5785 5784 5784 5783 5782 5781 5780 5778 5777 5776 5774 5773 5771 5770 5768 5766 5765 5764 5763 5762 5762 5761 5760 5759 5758 5758 5757 5757 5757 5756 5756 5756 5756 5755 5755
5782 5782 5781 5781 5781 5780 5780 5780 5779 5779 5778 5777 5776 5775 5774 5772 5771 5769 5767 5766 5764 5763 5761 5760 5758 5757 5756 5755 5755 5754 5753 5752 5751 5751 5750 5750 5749 5749 5748 5748 5748 5748 5748
5775 5775 5775 5775 5774 5774 5774 5773 5773 5772 5772 5771 5770 5769 5768 5766 5765 5763 5761 5759 5757 5756 5755 5753 5752 5751 5749 5748 5747 5746 5746 5745 5744 5744 5743 5742 5742 5741 5741 5741 5740 5739 5740
5768 5768 5768 5768 5767 5767 5767 5766 5766 5766 5765 5764 5763 5763 5761 5760 5758 5756 5754 5752 5751 5749 5748 5747 5746 5744 5743 5742 5741 5739 5738 5738 5737 5736 5735 5735 5734 5733 5733 5733 5732 5732 5731
5760 5760 5760 5761 5760 5760 5760 5759 5759 5758 5758 5757 5756 5755 5755 5753 5752 5750 5748 5746 5744 5743 5742 5740 5739 5738 5736 5735 5734 5733 5731 5730 5729 5728 5727 5726 5725 5725 5724 5724 5724 5724 5723
5752 5752 5752 5752 5752 5752 5752 5752 5751 5751 5751 5750 5749 5748 5748 5746 5745 5743 5741 5739 5738 5736 5735 5734 5732 5730 5729 5727 5726 5725 5724 5722 5721 5720 5719 5718 5717 5717 5716 5715 5715 5715 5714
5743 5743 5743 5743 5743 5743 5743 5743 5743 5743 5743 5742 5742 5741 5740 5739 5738 5736 5734 5732 5731 5729 5728 5726 5725 5722 5721 5719 5718 5717 5715 5714 5713 5712 5711 5710 5709 5708 5707 5707 5706 5705 5705
5735 5734 5734 5734 5734 5734 5734 5734 5734 5734 5734 5734 5734 5733 5732 5731 5730 5728 5726 5724 5723 5721 5720 5719 5717 5715 5713 5711 5710 5709 5708 5706 5705 5704 5703 5701 5701 5700 5699 5698 5697 5696 5695
5726 5725 5725 5725 5725 5724 5724 5725 5725 5725 5725 5725 5725 5725 5724 5723 5722 5720 5718 5716 5715 5713 5712 5710 5708 5707 5705 5703 5702 5701 5699 5698 5697 5696 5694 5693 5692 5691 5690 5689 5688 5687 5687
5717 5717 5716 5716 5716 5715 5715 5715 5715 5716 5716 5717 5716 5716 5716 5715 5713 5712 5710 5708 5707 5705 5703 5702 5700 5698 5697 5695 5694 5692 5691 5689 5688 5687 5685 5684 5683 5682 5681 5680 5679 5678 5678
5708 5707 5707 5707 5706 5706 5706 5706 5706 5707 5707 5707 5707 5706 5706 5705 5704 5703 5701 5699 5698 5697 5695 5693 5692 5690 5689 5687 5686 5684 5682 5681 5679 5678 5676 5675 5674 5673 5672 5671 5670 5669 5668
5698 5698 5698 5698 5697 5697 5697 5697 5697 5698 5698 5697 5697 5696 5696 5695 5694 5693 5692 5690 5689 5687 5686 5685 5683 5681 5680 5679 5677 5675 5674 5672 5671 5669 5668 5666 5665 5664 5663 5662 5660 5659 5658
5687 5688 5688 5688 5688 5688 5688 5688 5688 5688 5687 5687 5687 5686 5686 5685 5685 5683 5682 5681 5679 5678 5677 5676 5674 5673 5671 5670 5668 5667 5665 5664 5662 5660 5659 5658 5656 5655 5653 5652 5651 5650 5648
5677 5678 5678 5678 5678 5679 5679 5679 5679 5678 5678 5678 5677 5677 5676 5676 5675 5674 5673 5671 5670 5669 5668 5667 5666 5664 5663 5661 5660 5658 5656 5654 5653 5651 5650 5648 5647 5646 5644 5643 5641 5640 5638
5667 5668 5668 5668 5669 5669 5669 5669 5669 5669 5669 5669 5668 5668 5667 5666 5665 5665 5663 5662 5661 5660 5659 5658 5656 5655 5653 5652 5650 5649 5647 5645 5644 5642 5641 5639 5637 5636 5634 5633 5631 5629 5628
5657 5658 5658 5658 5658 5658 5659 5659 5659 5659 5659 5659 5659 5658 5658 5657 5656 5655 5654 5653 5652 5651 5650 5648 5647 5646 5644 5642 5641 5639 5637 5636 5634 5633 5631 5630 5628 5626 5625 5623 5621 5619 5618
5647 5647 5648 5647 5648 5648 5648 5648 5648 5648 5648 5649 5649 5648 5648 5647 5647 5646 5645 5644 5643 5641 5640 5639 5638 5636 5635 5633 5632 5630 5628 5627 5625 5623 5622 5620 5618 5616 5615 5613 5611 5609 5607
5637 5637 5637 5637 5637 5637 5637 5637 5637 5638 5638 5638 5639 5638 5638 5638 5637 5636 5635 5635 5633 5632 5631 5630 5629 5627 5626 5624 5622 5621 5619 5618 5616 5614 5612 5610 5608 5606 5604 5602 5601 5598 5597
5626 5627 5627 5627 5627 5627 5627 5627 5627 5627 5628 5628 5629 5629 5628 5628 5627 5627 5626 5625 5624 5623 5622 5621 5619 5618 5616 5615 5613 5611 5609 5608 5606 5604 5602 5600 5598 5596 5594 5592 5590 5588 5586
5616 5616 5616 5617 5616 5616 5617 5617 5617 5617 5617 5618 5619 5619 5619 5619 5618 5618 5617 5616 5615 5614 5613 5612 5610 5609 5607 5605 5603 5601 5600 5598 5596 5594 5591 5589 5587 5585 5583 5581 5579 5577 5575
5606 5606 5606 5606 5606 5606 5606 5607 5607 5607 5608 5608 5609 5609 5609 5609 5609 5608 5608 5607 5606 5605 5603 5602 5601 5600 5598 5596 5593 5591 5589 5587 5585 5583 5581 5579 5577 5575 5572 5570 5568 5566 5564
5596 5596 5596 5596 5596 5596 5596 5597 5597 5598 5598 5598 5599 5599 5600 5600 5600 5599 5599 5598 5597 5595 5594 5593 5591 5590 5588 5586 5584 5582 5580 5577 5575 5573 5570 5568 5566 5564 5561 5559 5557 5555 5552
Wind_Speed
18 18 19 18 17 17 17 17 17 17 17 16 16 17 17 17 17 18 18 18 18 19 19 20 20 21 21 20 20 20 21 21 21 21 22 21 22 22 22 22 23 23 24
19 19 19 18 17 17 17 17 17 17 17 17 17 18 18 18 18 18 19 19 20 20 21 21 21 21 21 21 21 21 21 22 22 22 22 23 23 23 23 22 23 23 24
20 20 20 19 18 18 18 18 18 18 18 18 18 18 19 19 19 19 20 20 21 22 22 22 22 22 22 22 22 22 22 22 22 23 23 23 23 23 23 23 24 23 24
21 21 21 20 20 20 20 20 20 20 20 20 20 20 20 20 20 20 21 22 22 23 23 22 22 22 22 23 23 23 23 22 23 23 23 24 24 24 24 24 25 25 25
22 23 22 22 22 22 22 22 22 21 21 21 21 21 21 21 21 21 22 23 23 24 24 24 24 23 23 23 23 23 24 24 24 24 24 24 24 24 24 25 25 25 25
24 24 24 23 23 23 23 23 23 23 23 23 23 22 22 22 23 23 24 24 24 24 24 24 24 24 24 24 24 24 24 24 24 24 24 24 24 24 24 24 25 25 25
25 26 26 25 25 25 25 25 25 25 25 24 24 23 23 23 24 24 25 25 24 24 24 24 24 24 24 24 25 25 25 25 24 25 25 24 24 25 25 25 26 26 26
26 26 26 26 27 26 26 26 25 25 25 25 25 24 24 24 24 24 25 25 25 25 24 24 24 24 24 24 24 25 25 25 25 26 26 26 26 26 26 26 26 26 26
28 28 28 27 27 27 27 28 27 26 26 26 26 25 25 25 25 25 26 25 25 25 25 25 25 25 25 25 25 25 25 26 26 27 27 27 27 27 27 27 26 26 26
29 29 28 28 28 28 29 30 29 28 27 27 27 26 26 26 26 26 27 26 26 25 25 25 25 26 26 26 26 26 26 27 27 27 27 28 28 28 28 28 27 27 27
30 30 30 30 29 30 30 30 30 29 28 29 29 28 27 27 27 27 28 27 27 27 27 27 27 27 27 27 27 27 26 27 27 27 28 28 28 28 28 28 28 28 28
31 31 31 32 32 31 31 31 31 30 30 30 30 29 28 28 28 28 29 29 28 29 29 29 29 28 28 27 27 27 28 28 28 28 29 29 28 28 28 28 28 29 29
31 31 32 32 32 32 32 32 32 31 31 31 30 30 29 29 29 29 29 30 29 30 30 30 29 28 28 28 28 29 29 29 29 29 29 29 29 29 29 29 29 29 29
31 32 32 31 31 32 31 31 31 31 31 31 31 31 30 30 29 29 30 30 30 30 30 30 30 29 30 29 29 29 29 30 30 30 29 29 29 29 30 30 30 30 30
31 31 31 31 31 31 31 31 31 30 31 32 32 32 31 31 31 30 31 30 30 30 30 30 30 30 31 30 30 30 30 30 30 30 29 29 30 30 29 30 31 31 31
33 32 32 31 31 30 30 31 31 31 32 33 33 32 31 31 32 32 32 32 31 31 31 31 31 32 32 31 31 31 31 31 30 30 30 30 30 30 30 31 31 31 31
34 33 32 32 31 31 31 31 32 32 33 33 33 33 33 33 33 33 33 32 32 31 31 31 31 31 31 31 31 31 31 31 31 31 31 31 31 31 31 31 32 32 32
33 33 33 33 33 33 33 32 32 32 32 32 32 32 32 32 32 33 33 32 33 33 33 32 32 32 32 32 32 32 32 31 31 31 31 31 31 32 32 31 32 32 32
33 33 33 33 34 34 34 33 33 32 32 32 32 32 32 32 32 33 33 32 33 33 33 33 32 32 32 32 33 33 33 32 32 32 31 32 32 32 32 32 33 33 33
33 33 33 34 33 33 33 33 33 33 32 32 33 33 32 32 33 33 33 32 32 32 32 32 32 32 32 32 32 32 32 32 32 32 32 32 32 32 32 33 33 33 33
34 34 34 34 34 34 34 34 34 34 33 33 32 32 32 32 32 32 32 32 32 32 31 31 32 32 32 33 32 32 32 32 32 32 32 32 33 33 33 34 34 34 34
34 33 33 34 34 33 33 33 34 34 34 33 32 32 32 32 31 32 31 31 31 31 31 31 31 32 32 32 32 32 32 32 32 32 33 33 33 34 34 35 35 35 34
34 34 34 34 33 33 33 33 33 34 33 33 33 32 31 31 30 30 30 30 30 30 30 31 31 31 31 32 32 32 33 33 33 33 33 33 34 34 35 35 35 35 35
33 33 33 33 33 33 33 33 32 32 32 31 32 31 31 31 30 30 30 29 29 30 30 30 30 31 31 32 32 32 33 33 33 33 33 34 34 35 35 35 35 35 36
33 33 33 33 33 33 32 32 31 31 31 31 31 31 31 30 30 29 29 29 30 30 30 30 31 31 31 32 32 32 32 32 33 33 34 34 34 35 36 36 36 36 36
33 33 33 33 32 32 32 31 30 30 30 30 30 30 30 30 30 29 29 29 29 30 31 31 31 31 31 32 32 32 32 33 33 34 34 34 34 35 35 36 36 35 35
Wind_Direction
275 278 281 283 284 283 285 288 291 292 290 290 290 291 291 290 290 291 291 291 290 290 290 290 290 290 289 287 286 286 285 284 282 280 279 278 279 278 278 277 276 277 275
274 277 280 282 281 280 283 285 287 288 288 289 290 292 292 292 291 291 290 290 289 289 289 290 291 289 287 287 287 287 287 284 283 281 280 279 279 280 278 278 278 277 277
274 276 279 281 281 279 281 283 285 286 286 288 290 291 291 290 290 290 290 290 290 291 291 290 290 289 287 286 287 287 287 287 286 283 281 281 280 279 279 280 280 279 279
272 273 277 280 280 280 280 281 283 284 285 288 290 291 291 291 290 290 290 290 291 292 292 292 291 289 287 286 286 286 287 287 287 286 284 282 281 280 279 279 279 280 279
272 273 274 277 279 280 281 280 281 282 283 286 288 289 290 291 291 291 291 291 292 292 292 291 292 291 288 287 287 286 287 287 287 286 286 284 284 281 280 281 281 281 279
271 273 275 277 279 279 280 279 280 281 282 284 285 287 289 291 291 292 292 293 293 293 292 292 292 292 290 288 287 287 287 287 287 286 286 286 284 283 283 282 281 281 279
272 274 275 277 278 279 279 279 279 280 281 282 284 285 287 290 291 292 292 293 293 292 291 292 292 292 290 289 288 288 287 287 287 287 287 285 284 283 284 284 283 282 281
272 273 275 276 276 277 278 280 279 280 281 281 284 284 285 287 290 291 292 292 291 291 290 291 292 292 292 291 289 288 287 287 288 290 288 286 285 285 284 284 283 282 282
270 271 274 276 276 277 278 280 280 281 281 282 285 284 285 287 289 291 292 291 291 291 291 291 292 292 292 291 289 288 287 286 287 288 288 287 286 285 285 284 283 283 283
271 271 272 274 275 275 276 278 278 279 280 281 284 285 285 286 288 290 290 290 289 290 290 291 291 291 292 291 289 288 287 286 287 287 287 286 286 285 285 284 283 283 282
272 272 272 273 274 274 274 276 276 277 278 280 281 283 284 285 287 288 289 289 288 289 289 290 290 290 289 290 289 288 287 287 287 288 288 287 286 285 284 284 283 283 283
271 271 272 273 273 273 273 274 274 274 275 278 280 281 282 284 285 287 287 287 287 287 288 289 290 290 289 289 288 288 287 288 289 289 289 288 286 284 284 285 283 283 282
271 271 272 273 272 272 274 273 273 273 274 276 278 280 282 284 285 287 286 285 285 287 288 288 288 289 288 288 288 288 288 288 290 290 289 288 286 284 284 284 283 283 282
271 272 272 271 271 272 273 272 271 272 272 274 277 279 281 283 285 287 287 284 285 286 287 287 287 287 287 287 287 288 289 289 289 289 290 289 287 286 284 284 284 283 283
272 272 272 272 273 274 275 273 272 272 274 275 277 279 279 281 282 284 286 285 284 285 286 286 286 286 288 287 287 287 288 288 288 289 289 289 289 288 287 286 285 283 282
271 271 271 272 272 273 275 274 274 275 275 275 277 278 279 280 281 283 284 285 285 285 285 285 286 287 287 287 288 288 288 287 288 288 288 289 289 288 287 286 285 285 285
271 270 270 271 272 273 274 275 275 276 277 276 277 278 279 280 282 283 283 283 283 283 284 285 286 287 288 287 287 287 287 287 288 288 288 288 288 287 287 287 286 286 286
269 269 269 270 271 272 274 274 275 275 275 276 278 280 281 281 281 283 283 283 283 283 283 285 286 287 287 287 287 287 287 287 288 288 288 288 288 287 287 287 287 287 287
267 268 269 270 270 272 274 275 274 274 275 276 277 279 280 281 282 283 284 285 285 285 283 284 286 287 287 287 287 286 286 287 287 288 288 289 289 288 288 288 288 288 287
266 268 270 271 271 272 273 273 273 273 274 275 276 277 278 279 281 282 283 284 285 286 284 284 286 287 287 287 288 287 287 287 287 287 287 288 289 289 289 289 289 288 287
267 269 271 272 272 273 273 273 273 272 272 274 276 276 277 278 279 281 282 283 284 284 284 283 284 286 287 288 288 288 287 287 287 287 286 287 288 290 291 291 290 289 288
268 271 273 273 273 273 274 274 274 273 272 273 274 276 277 278 279 280 280 282 283 284 284 285 285 285 286 287 287 287 287 286 286 287 286 287 289 290 290 291 291 291 290
268 269 272 273 274 274 274 275 275 274 273 273 274 275 276 277 278 279 280 282 283 284 285 286 287 287 287 287 288 288 288 288 288 288 287 287 289 290 291 291 291 291 291
269 270 272 274 274 274 275 276 275 274 273 273 273 273 275 276 278 279 280 281 282 284 285 285 286 287 288 288 288 289 289 288 288 288 288 288 289 290 291 291 291 292 292
269 271 273 274 274 274 275 276 275 274 273 272 271 272 274 276 278 279 281 282 283 284 285 285 285 287 288 289 290 290 290 290 290 290 291 291 291 291 291 291 291 292 292
269 270 272 273 273 273 274 274 274 272 272 271 271 273 273 275 277 278 280 282 283 285 285 286 287 288 289 290 291 291 290 290 291 291 292 292 292 292 292 292 291 291 290